| time (UTC) | temp F | wind direction | speed MPH | gust MPH | rain 1hr in | rain 24hr in | rain mn in | humidity % | barometer mb |
| 20260504194516 | 56 | 124 | 12.0 | 27.0 | 0.00 | 0.00 | 0.00 | 73 | 1010.3 |
| 20260504193038 | 56 | 291 | 10.0 | 23.0 | 0.00 | 0.00 | 0.00 | 76 | 1010.6 |
| 20260504191516 | 56 | 245 | 12.0 | 23.0 | 0.00 | 0.00 | 0.00 | 78 | 1010.8 |
| 20260504190028 | 55 | 267 | 13.0 | 28.0 | 0.00 | 0.00 | 0.00 | 77 | 1011.0 |
| 20260504184516 | 56 | 235 | 12.0 | 25.0 | 0.00 | 0.00 | 0.00 | 77 | 1010.9 |
| 20260504183008 | 56 | 270 | 12.0 | 26.0 | 0.00 | 0.00 | 0.00 | 76 | 1010.9 |
| 20260504181513 | 56 | 242 | 15.0 | 29.0 | 0.00 | 0.00 | 0.00 | 76 | 1010.8 |
| 20260504180003 | 55 | 273 | 10.0 | 25.0 | 0.00 | 0.00 | 0.00 | 78 | 1010.7 |
| 20260504174619 | 55 | 250 | 16.0 | 31.0 | 0.00 | 0.00 | 0.00 | 79 | 1010.8 |
| 20260504173048 | 55 | 124 | 12.0 | 26.0 | 0.00 | 0.00 | 0.00 | 79 | 1010.8 |
| 20260504171527 | 55 | 124 | 15.0 | 26.0 | 0.00 | 0.00 | 0.00 | 78 | 1010.7 |
| 20260504081522 | 49 | 281 | 4.0 | 11.0 | 0.00 | 0.00 | 0.00 | 77 | 1011.5 |
| 20260504060104 | 49 | 274 | 6.0 | 14.0 | 0.00 | 0.02 | 0.00 | 77 | 1011.2 |
| 20260504050021 | 49 | 260 | 8.0 | 16.0 | 0.00 | 0.02 | 0.00 | 75 | 1011.2 |
| 20260504044528 | 49 | 279 | 9.0 | 16.0 | 0.00 | 0.02 | 0.00 | 73 | 1011.1 |
| 20260504043028 | 50 | 279 | 7.0 | 16.0 | 0.00 | 0.02 | 0.00 | 73 | 1011.3 |
| 20260504041509 | 49 | 262 | 6.0 | 14.0 | 0.00 | 0.02 | 0.00 | 74 | 1011.2 |
| 20260504040043 | 49 | 295 | 6.0 | 13.0 | 0.00 | 0.06 | 0.02 | 71 | 1011.0 |
| 20260504034514 | 49 | 270 | 5.0 | 12.0 | 0.00 | 0.06 | 0.02 | 70 | 1010.8 |
| 20260504033002 | 49 | 273 | 6.0 | 10.0 | 0.00 | 0.06 | 0.02 | 66 | 1010.7 |
| 20260504031522 | 49 | 260 | 5.0 | 9.0 | 0.00 | 0.06 | 0.02 | 62 | 1010.5 |
| 20260504024523 | 49 | 279 | 6.0 | 11.0 | 0.00 | 0.12 | 0.02 | 61 | 1010.6 |
| 20260504023039 | 49 | 277 | 5.0 | 9.0 | 0.00 | 0.12 | 0.02 | 61 | 1010.7 |
| 20260504021539 | 49 | 277 | 5.0 | 10.0 | 0.00 | 0.12 | 0.02 | 61 | 1010.6 |
| 20260504020033 | 49 | 281 | 4.0 | 7.0 | 0.00 | 0.22 | 0.02 | 59 | 1010.6 |
| 20260504014535 | 49 | 283 | 4.0 | 8.0 | 0.00 | 0.22 | 0.02 | 58 | 1010.6 |
| 20260504013046 | 49 | 280 | 4.0 | 7.0 | 0.00 | 0.22 | 0.02 | 59 | 1010.4 |
| 20260504011548 | 49 | 287 | 3.0 | 6.0 | 0.00 | 0.22 | 0.02 | 53 | 1010.3 |
| 20260504010051 | 50 | 334 | 1.0 | 3.0 | 0.00 | 0.32 | 0.02 | 54 | 1010.0 |
| 20260504004554 | 50 | 335 | 2.0 | 5.0 | 0.00 | 0.32 | 0.02 | 51 | 1009.9 |
| 20260504003056 | 51 | 340 | 4.0 | 9.0 | 0.00 | 0.32 | 0.02 | 47 | 1009.6 |
| 20260504001608 | 51 | 307 | 4.0 | 8.0 | 0.00 | 0.32 | 0.02 | 48 | 1009.4 |
| 20260504000010 | 52 | 344 | 3.0 | 13.0 | 0.00 | 0.36 | 0.02 | 45 | 1009.2 |
| 20260503234528 | 52 | 1 | 7.0 | 15.0 | 0.00 | 0.36 | 0.02 | 42 | 1008.9 |
| 20260503233043 | 53 | 328 | 7.0 | 16.0 | 0.00 | 0.36 | 0.02 | 42 | 1008.5 |
| 20260503231535 | 53 | 336 | 6.0 | 19.0 | 0.00 | 0.36 | 0.02 | 42 | 1008.2 |
| 20260503230022 | 53 | 342 | 6.0 | 20.0 | 0.00 | 0.36 | 0.02 | 44 | 1008.0 |
| 20260503224520 | 54 | 331 | 10.0 | 22.0 | 0.00 | 0.36 | 0.02 | 41 | 1007.9 |
| 20260503223012 | 54 | 310 | 4.0 | 16.0 | 0.00 | 0.36 | 0.02 | 47 | 1007.7 |
| 20260503221513 | 54 | 351 | 7.0 | 19.0 | 0.00 | 0.36 | 0.02 | 43 | 1007.4 |
| 20260503220106 | 54 | 358 | 7.0 | 20.0 | 0.00 | 0.36 | 0.02 | 41 | 1007.0 |
| 20260503214605 | 54 | 345 | 8.0 | 19.0 | 0.00 | 0.36 | 0.02 | 42 | 1006.9 |
| 20260503213103 | 54 | 4 | 7.0 | 22.0 | 0.00 | 0.36 | 0.02 | 43 | 1006.7 |
| 20260503211553 | 54 | 16 | 8.0 | 17.0 | 0.00 | 0.36 | 0.02 | 42 | 1006.6 |
| 20260503210057 | 54 | 360 | 6.0 | 18.0 | 0.00 | 0.36 | 0.02 | 43 | 1006.3 |
| 20260503204502 | 55 | 338 | 6.0 | 19.0 | 0.00 | 0.36 | 0.02 | 43 | 1006.0 |
| 20260503203020 | 53 | 341 | 6.0 | 13.0 | 0.00 | 0.36 | 0.02 | 49 | 1006.0 |
| 20260503201519 | 53 | 358 | 8.0 | 16.0 | 0.00 | 0.36 | 0.02 | 51 | 1006.0 |
| 20260503200017 | 54 | 24 | 6.0 | 19.0 | 0.00 | 0.36 | 0.02 | 49 | 1005.8 |